Flag for Mexico Weather past 2 weeks in Matamoros, Tamaulipas, Mexico

Now
78 °F

Clear.


Feels Like: 81 °F
Forecast: 79 / 94 °F
Wind: 6 mph from Southeast

Location: Brownsville / South Padre Island International Airport

Current Time: Jul 26, 2014 at 6:46:57 AM

Latest Report: Jul 26, 2014 at 5:53 AM


Visibility: 10 mi

Pressure: 29.97 "Hg

Humidity: 93%

Dew point: 76 °F

Location of MatamorosLocation

Historic Weather in Matamoros — Graph

°F

Matamoros temperature yesterday

Maximum temperature yesterday: 95 °F (at 1:53 PM)
Minimum temperature yesterday: 77 °F (at 6:53 AM)
Average temperature yesterday: 86 °F

Past Weeks' High & Low Weather Summary

 TemperatureHumidityPressure
High96 °F (Jul 19, 3:53 PM)100% (Jul 19, 8:04 AM)30.12 "Hg (Jul 19, 8:04 AM)
Low75 °F (Jul 12, 3:53 AM)44% (Jul 24, 12:53 PM)29.78 "Hg (Jul 17, 7:53 PM)
Average84 °F77%29.96 "Hg
* Reported Jul 11 5:53 AM — Jul 26 5:53 AM, Matamoros, Weather by CustomWeather, © 2014

Note: Actual official high and low records may vary slightly from our data, if they occured in-between our weather recording intervals... More about our weather records

Advertising

Matamoros weather history for previous 24 hours

 ConditionsComfort  
Time TempWeatherWind HumidityBarometerVisibility
5:53 AM
Jul 26
78 °FClear.6 mph93%29.97 "Hg10 mi
4:53 AM79 °FClear.7 mph90%29.96 "Hg10 mi
3:53 AM79 °FClear.10 mph90%29.97 "Hg10 mi
2:53 AM80 °FClear.9 mph87%29.99 "Hg10 mi
1:53 AM80 °FClear.10 mph90%30.00 "Hg10 mi
12:53 AM81 °FClear.10 mph85%30.01 "Hg10 mi
11:53 PM
Jul 25
81 °FClear.12 mph85%30.01 "Hg10 mi
10:53 PM82 °FClear.12 mph82%29.99 "Hg10 mi
9:53 PM82 °FClear.14 mph82%29.97 "Hg10 mi
8:53 PM83 °FSunny.14 mph79%29.96 "Hg10 mi
7:53 PM85 °FSunny.20 mph70%29.95 "Hg10 mi
6:53 PM89 °FSunny.21 mph59%29.94 "Hg10 mi
5:53 PM91 °FSunny.17 mph54%29.94 "Hg10 mi
4:53 PM94 °FSunny.22 mph46%29.94 "Hg10 mi
3:53 PM95 °FSunny.18 mph44%29.95 "Hg10 mi
2:53 PM95 °FPassing clouds.18 mph44%29.97 "Hg10 mi
1:53 PM95 °FPassing clouds.15 mph47%29.98 "Hg10 mi
12:53 PM94 °FPassing clouds.18 mph51%29.99 "Hg10 mi
11:53 AM94 °FPassing clouds.13 mph51%30.01 "Hg10 mi
10:53 AM91 °FSunny.17 mph56%30.01 "Hg10 mi
9:53 AM88 °FScattered clouds.15 mph65%30.01 "Hg10 mi
8:55 AM84 °FScattered clouds.12 mph84%30.01 "Hg10 mi
7:53 AM79 °FSunny.3 mph94%30.00 "Hg10 mi
6:53 AM77 °FClear.6 mph96%29.98 "Hg10 mi
Weather by CustomWeather, © 2014

See weather overviewHow to use our weather pages